Regional Weather Roundup
Issued by NWS State College, PA

Home | Current Version | Previous Version | Graphics & Text | Print | Product List | Glossary On
Versions: 1 2 3 4 5 6 7 8 9 10 11 12 13 14 15 16 17 18 19 20 21 22 23 24 25 26 27 28 29 30 31 32 33 34 35 36 37 38 39 40 41 42 43 44 45 46 47 48 49 50
000
ASUS41 KCTP 022203
RWRCTP

REGIONAL WEATHER ROUNDUP
NATIONAL WEATHER SERVICE STATE COLLEGE PA
600 PM EDT SUN AUG 02 2015

Note: "fair" indicates few or no clouds below 12,000 feet with no
significant weather and/or obstructions to visibility.

* = STATION THAT DOES NOT REPORT PRECIPITATION /E.G. RAIN...SNOW...ETC/
    THUNDER OR FOG.

PAZ002>004-007>009-013>016-020>023-029>032-022300-
WESTERN PENNSYLVANIA

CITY           SKY/WX    TMP DP  RH WIND       PRES   REMARKS
ERIE           MOSUNNY   87  61  41 S8        29.79F
MEADVILLE      LGT RAIN  84  61  45 SW10      29.87F
FRANKLIN*      MOSUNNY   81  61  50 SW7       29.91F
NEW CASTLE     FAIR      87  65  47 SW12      29.89R
BEAVER COUNTY  NOT AVBL
BUTLER*        MOSUNNY   84  63  48 W14       29.92S
PITTSBURGH INT MOSUNNY   85  60  42 SW13G20   29.91R
PITTSBURGH     SUNNY     83  55  38 SW15      29.91S
INDIANA*       MOSUNNY   82  64  54 SW13      29.95R
LATROBE        MOSUNNY   82  63  51 SW10      29.92F
WASHINGTON CO* NOT AVBL
$$

PAZ004>006-010>012-017>019-024>028-033>037-041-042-045-046-049>053-022300-
CENTRAL PENNSYLVANIA

CITY           SKY/WX    TMP DP  RH WIND       PRES   REMARKS
BRADFORD       SUNNY     80  53  39 W10       29.92S
DUBOIS         MOSUNNY   82  56  40 SW9       29.92R
CLEARFIELD     MOSUNNY   82  59  45 S9        29.92R
JOHNSTOWN      PTSUNNY   78  59  51 SW14      29.97S
ALTOONA        PTSUNNY   81  60  48 SW10      29.93S
STATE COLLEGE  MOSUNNY   81  61  50 W9        29.91S
WILLIAMSPORT   PTSUNNY   85  58  39 SW10      29.85S
SELINSGROVE    SUNNY     83  61  47 SW8       29.87F
FT INDIANTOWN  SUNNY     84  58  41 S12       29.88F
CAPITAL CITY   SUNNY     85  58  39 S12G17    29.88F
HARRISBURG     MOSUNNY   86  59  39 VRB6      29.88F
YORK           SUNNY     82  60  47 S9        29.90F
$$

PAZ038>040-043-044-047-048-054-055-060>062-067>071-022300-
EASTERN PENNSYLVANIA

CITY           SKY/WX    TMP DP  RH WIND       PRES   REMARKS
SCRANTON       SUNNY     82  58  43 S8        29.88F
MOUNT POCONO   MOSUNNY   77  55  46 SW12G18   29.95F
ALLENTOWN      SUNNY     85  58  39 SW10      29.89F
QUAKERTOWN*    PTCLDY    84  57  39 SW9       29.92S
READING        MOSUNNY   85  57  38 SW12      29.88F
LANCASTER      MOSUNNY   83  57  41 SW12      29.90F
COATESVILLE    CLEAR     82  59  44 CALM      29.93F
POTTSTOWN      SUNNY     83  58  42 SW8       29.92F
BLUE BELL      SUNNY     86  55  35 SW9       29.90S
DOYLESTOWN     MOSUNNY   84  52  33 VRB7      29.90S
WILLOW GROVE   NOT AVBL
NORTH PHILA    SUNNY     89  48  24 W12       29.90F
PHILADELPHIA   MOSUNNY   89  52  28 SW10      29.90F
$$



USA.gov is the U.S. government's official web portal to all federal, state and local government web resources and services.